RH
34 31 32 31 30 29 33 38 47 39 45 31 28 28 25 25 23 38 50 52 48 50 61 65 69 71 72 71 72 73 66 50 45 44 46 51 46 33 30 46 52 34 45 55
37 40 37 35 30 34 33 29 32 32 34 29 23 24 24 22 24 35 45 48 50 56 63 68 70 75 77 79 73 60 54 47 39 41 46 39 41 45 65 63 33 34 55 61
56 47 43 61 40 35 31 32 31 34 29 28 32 30 27 22 22 30 41 46 54 59 63 68 72 72 74 69 64 56 49 41 39 36 42 51 67 67 48 38 46 54 66 69
78 64 69 46 32 32 32 31 29 39 40 37 38 42 34 32 26 37 50 56 60 62 64 66 67 68 66 61 55 50 44 41 41 51 68 58 42 44 38 46 52 56 56 50
73 77 57 40 26 21 26 31 35 44 39 44 42 39 48 41 37 41 46 51 54 56 58 61 64 62 58 49 46 44 42 43 63 65 54 48 46 38 44 57 62 60 66 60
97 72 69 48 30 21 27 48 36 38 39 36 41 74 68 54 46 45 47 51 54 59 61 62 56 50 46 42 41 44 52 62 79 47 49 48 41 43 52 55 59 65 70 75
97 80 66 46 36 25 37 44 42 42 40 45 71 60 57 56 51 51 51 52 53 53 51 47 44 43 44 49 52 67 75 76 52 55 48 45 44 52 54 52 48 48 49 79
95 88 67 40 30 39 44 50 52 49 49 59 58 54 53 53 52 52 51 48 47 47 48 49 50 49 52 61 80 90 54 46 34 31 33 40 47 52 50 46 47 52 57 51
75 75 49 41 39 40 40 49 53 50 56 53 56 53 52 52 51 50 49 49 50 50 52 53 55 64 91 70 48 39 30 28 31 36 39 45 50 51 51 49 52 55 51 50
68 56 65 56 48 44 40 44 53 55 57 58 56 53 52 49 50 50 51 51 53 57 64 71 71 54 43 40 38 37 36 40 44 46 46 51 56 55 52 56 63 68 69 59
84 77 70 68 61 58 55 53 51 52 55 60 58 54 53 54 57 58 61 66 71 75 61 50 46 45 47 49 51 51 52 53 55 58 60 62 64 63 66 63 65 76 77 77
75 64 63 72 72 64 60 61 60 55 60 59 56 54 55 59 62 68 74 63 54 56 54 50 50 52 53 54 56 58 59 62 67 70 72 73 77 87 86 83 72 72 80 84
73 60 63 74 67 63 60 62 60 59 59 57 56 56 60 69 59 66 74 75 69 57 52 50 48 48 53 56 59 61 62 61 62 67 71 78 87 100 99 88 90 88 85 85
59 63 74 69 71 66 63 64 61 62 64 64 62 57 61 79 77 64 53 53 52 51 45 34 29 24 22 20 24 31 39 47 50 45 43 49 62 80 94 100 98 96 93 92
68 65 66 71 70 69 70 74 74 73 75 76 76 75 63 58 50 51 52 46 36 26 20 16 16 24 32 41 43 36 27 22 22 31 58 90 99 98 90 100 100 83 100 97
76 68 71 70 76 80 77 74 74 76 63 57 56 53 49 44 40 36 28 23 20 17 19 29 44 47 47 36 23 16 18 25 32 37 53 80 75 73 70 84 98 98 97 94
85 97 87 90 84 80 80 80 72 68 66 60 42 31 31 30 26 24 20 17 16 21 35 40 38 32 20 17 21 20 19 26 43 56 70 82 88 86 85 100 98 96 88 87
66 76 80 78 76 77 80 76 71 62 40 32 35 32 27 26 24 19 16 17 23 31 32 28 21 19 23 24 30 40 56 85 95 96 98 100 99 100 100 98 98 97 98 97
77 80 79 79 77 76 74 64 44 34 39 36 30 28 26 23 18 15 15 16 19 23 24 20 22 25 29 34 42 52 63 72 77 83 88 88 86 90 93 94 95 95 96 95
88 80 79 74 72 70 53 38 37 37 32 30 29 26 22 18 14 14 15 19 24 28 26 27 30 34 38 44 53 58 61 66 71 74 81 86 90 92 91 94 95 94 96 96
80 74 70 80 56 44 39 43 38 33 30 28 24 21 17 14 15 15 19 25 27 35 33 37 40 43 48 51 54 52 53 61 70 74 81 87 90 93 91 93 95 96 96 95
71 69 64 48 48 55 51 40 36 34 32 28 21 17 16 16 18 21 28 34 42 47 42 43 45 48 53 53 51 51 52 57 69 77 81 86 92 94 93 94 94 94 96 96
68 55 46 48 47 43 41 39 38 36 32 26 21 17 17 19 24 29 40 48 55 61 60 55 53 52 50 51 52 54 58 63 70 77 84 88 92 95 96 96 96 97 96 96
44 48 51 51 46 45 44 46 43 40 34 26 24 24 28 32 39 48 64 75 77 73 76 71 66 59 56 55 58 63 67 73 78 78 82 86 87 87 85 83 80 81 84 88
64 67 60 55 55 53 50 50 48 43 36 37 43 42 42 48 56 71 88 89 87 82 79 72 74 69 64 66 69 72 75 79 82 80 82 86 84 77 74 72 72 72 72 71
72 62 61 62 60 62 52 41 34 32 36 41 47 51 54 72 88 98 98 97 96 88 77 74 76 75 78 78 79 82 84 85 86 82 76 75 72 71 72 73 74 75 76 76
85 85 87 90 93 65 36 31 34 32 33 38 51 63 68 91 100 98 99 94 96 87 76 78 85 85 87 86 86 88 89 87 80 71 72 72 75 77 77 78 78 82 82 83
Wind_Speed
5 3 3 1 3 2 4 4 5 7 7 8 7 8 20 23 15 27 32 32 34 34 36 39 35 32 30 24 19 18 17 16 14 12 8 7 11 13 11 16 24 26 23 22
3 3 3 3 3 5 4 3 5 5 6 5 5 3 13 19 14 20 28 30 33 34 33 31 33 29 23 22 21 21 18 16 15 11 9 9 5 13 28 24 24 23 22 24
4 3 4 6 6 7 5 5 5 5 6 2 5 9 6 7 7 11 21 28 31 32 35 31 26 25 27 27 24 20 17 15 12 10 5 8 20 15 19 21 20 21 22 25
3 3 2 7 4 6 6 3 4 7 3 6 12 16 13 8 8 11 18 24 27 27 26 27 27 28 26 23 21 20 17 14 8 5 15 13 15 18 20 20 20 22 24 25
4 3 5 8 3 6 5 2 4 7 6 16 24 26 17 12 12 15 18 22 24 24 25 26 26 25 25 23 20 17 13 6 5 16 13 15 18 18 19 20 22 23 25 26
3 4 6 7 4 5 5 0 1 8 6 9 6 4 3 13 16 20 20 22 24 25 27 28 28 26 23 19 15 9 2 7 20 12 16 17 19 19 20 22 25 28 29 28
2 3 7 8 8 2 5 6 9 12 10 7 5 8 17 19 20 21 23 26 27 29 29 26 24 20 16 10 3 8 16 15 13 17 16 18 19 20 22 24 24 25 27 25
3 3 6 9 3 7 6 14 17 16 18 23 24 23 22 22 23 24 26 27 25 25 22 18 14 9 4 6 15 16 10 13 16 16 17 18 20 22 24 26 28 29 33 31
8 6 5 4 7 15 21 23 17 17 16 20 25 24 23 23 24 24 24 22 17 14 12 8 3 7 16 7 6 11 13 15 16 18 18 19 22 24 27 28 30 31 30 29
4 2 4 16 19 22 19 19 17 15 16 18 24 25 24 24 23 22 19 15 11 8 4 0 3 2 5 8 12 13 15 18 19 20 22 23 26 27 29 31 30 30 28 28
4 3 16 11 18 21 19 16 13 11 9 17 24 24 26 24 21 18 14 11 6 4 6 4 5 7 8 11 14 18 21 23 25 27 29 32 34 33 32 34 32 31 28 26
5 21 8 12 17 21 20 16 12 8 17 19 18 26 24 22 16 12 10 10 8 7 6 4 5 6 9 11 13 17 21 24 26 30 33 36 37 40 38 37 35 33 30 27
10 25 18 25 23 19 17 17 17 18 21 26 23 21 19 19 18 16 12 8 6 4 1 5 10 10 13 16 19 22 26 29 30 32 34 35 36 36 42 43 41 39 35 31
26 32 24 26 18 19 19 20 21 23 23 22 24 22 23 20 15 13 11 8 3 3 7 9 12 15 17 20 22 23 25 28 31 34 36 37 38 40 40 41 41 45 37 35
26 6 23 26 25 22 21 26 29 29 26 24 20 19 16 15 13 9 5 1 2 6 8 11 13 15 18 22 25 29 32 34 34 34 34 33 31 33 36 35 38 36 37 26
19 22 29 27 25 26 29 28 27 26 23 22 20 16 13 10 7 4 1 3 6 9 11 12 15 19 23 27 30 32 32 32 33 35 35 36 39 38 38 34 32 22 17 19
32 24 27 26 28 30 28 25 25 24 20 17 15 13 10 8 4 1 2 6 8 9 11 15 19 22 25 26 28 30 31 30 29 28 28 30 31 34 34 30 28 19 14 14
12 23 23 30 34 32 26 25 23 20 18 16 14 10 7 3 1 3 6 7 8 10 13 17 21 22 23 24 24 23 23 23 24 24 23 25 24 22 23 22 20 13 9 9
23 25 27 27 26 27 28 25 21 18 16 13 10 6 2 2 3 6 7 9 11 14 18 19 20 21 21 20 21 21 21 22 23 23 24 27 27 31 28 27 23 19 19 19
26 27 27 29 26 25 25 21 19 17 14 9 5 2 1 3 5 7 9 11 13 15 16 17 18 18 18 19 20 20 21 22 22 23 23 23 22 22 22 20 19 19 18 16
30 30 29 24 24 23 20 18 15 13 10 6 3 1 2 5 7 8 9 10 12 13 14 15 17 17 18 19 20 20 21 22 22 22 21 20 19 19 20 20 20 20 20 19
30 28 26 25 24 22 17 14 11 8 6 3 1 3 4 5 8 10 11 10 12 14 14 16 17 18 19 20 21 21 21 21 21 21 20 20 20 20 20 21 21 21 21 20
25 24 23 21 20 18 16 11 9 5 2 1 3 5 7 8 9 10 10 12 13 15 17 18 19 20 22 21 21 21 21 21 21 20 19 19 19 20 20 21 22 21 20 20
22 21 20 18 16 14 12 9 5 1 2 5 7 8 8 9 10 11 12 13 15 16 18 19 20 21 22 21 21 20 20 19 20 19 19 19 19 19 19 20 21 21 20 20
20 20 18 17 14 11 8 6 3 2 5 6 7 9 10 11 11 11 13 15 16 18 20 20 22 22 21 21 21 21 20 20 19 19 19 19 19 20 20 20 20 21 21 21
20 19 16 12 9 7 5 6 6 6 7 7 8 9 10 11 11 12 14 16 18 21 21 21 22 23 21 22 21 21 21 19 18 19 19 18 19 20 20 20 21 21 22 22
18 16 15 12 8 6 5 5 5 7 8 9 10 11 11 11 13 15 17 19 20 22 21 21 21 22 21 21 21 20 20 19 18 18 18 18 19 21 21 21 21 21 22 22
Wind_Direction
191 207 198 211 256 260 164 193 159 255 207 247 252 232 222 210 203 212 212 206 204 200 194 200 199 193 189 191 203 215 204 196 198 203 232 277 279 294 313 309 299 289 293 291
230 30 63 194 251 284 245 224 228 234 266 249 259 220 171 193 181 199 210 205 201 197 192 189 188 191 200 210 199 197 201 201 199 212 251 265 278 304 287 284 289 296 297 298
252 343 9 335 222 214 236 239 196 230 239 209 55 62 59 104 142 184 198 199 191 189 185 189 196 206 196 190 191 197 203 198 204 220 241 319 305 279 287 294 297 300 301 299
199 24 335 244 274 228 133 24 87 99 73 75 95 78 71 90 116 160 173 170 174 182 188 189 189 182 184 186 187 192 193 200 206 318 327 291 284 295 297 298 299 301 301 303
140 202 296 302 228 159 159 28 336 136 122 111 103 85 52 94 131 145 159 171 178 182 183 178 178 180 179 177 184 190 194 188 332 320 270 284 294 294 300 300 300 299 299 303
122 149 210 241 268 135 105 187 167 157 162 150 146 80 261 119 137 144 149 154 160 166 169 171 166 170 172 165 170 158 155 307 296 266 291 292 298 301 302 302 302 299 298 297
126 191 286 250 250 132 111 225 157 130 134 145 106 160 147 143 138 144 149 152 156 157 155 155 160 169 161 152 160 314 296 278 276 296 295 298 298 300 303 304 304 308 305 292
103 71 280 210 145 162 179 129 130 116 117 115 129 138 140 141 143 146 147 147 153 152 148 147 151 167 172 299 288 278 266 288 294 297 299 297 298 297 300 306 309 312 314 300
176 208 243 210 154 142 145 134 128 130 134 142 148 146 149 146 145 143 144 144 144 143 138 141 184 288 291 275 283 297 295 297 302 301 297 299 299 300 302 304 305 305 310 306
115 66 108 124 131 137 148 142 140 136 140 160 154 158 153 149 144 141 138 135 134 132 129 47 316 322 327 323 316 313 311 311 308 302 305 305 302 301 302 302 301 303 305 310
77 54 99 126 135 145 142 146 151 144 149 162 168 161 155 142 136 134 131 126 127 113 93 43 11 1 349 333 323 315 311 309 306 304 302 301 300 298 299 304 297 294 299 305
201 182 142 162 158 155 145 137 133 141 142 154 166 149 145 135 132 129 123 116 100 73 46 18 349 333 310 300 298 297 293 293 297 297 296 295 294 293 291 298 292 290 289 293
142 165 151 145 150 157 142 132 130 133 137 137 135 138 138 126 118 115 118 117 108 121 274 303 304 300 299 296 293 292 292 293 294 295 296 296 295 296 297 297 295 289 286 289
150 141 124 146 142 144 143 135 133 126 126 125 124 124 127 129 132 129 124 123 142 275 295 301 301 302 302 300 303 304 304 304 306 305 304 304 303 301 300 301 302 301 287 284
146 152 162 148 143 141 140 139 131 129 131 131 136 135 138 136 134 131 132 149 301 303 306 308 310 312 312 314 315 316 316 315 313 310 309 310 308 307 306 299 297 304 301 283
138 138 144 147 143 142 143 143 139 135 135 133 135 138 138 141 138 135 102 315 314 329 331 324 320 321 321 321 320 320 321 321 321 317 312 306 307 314 315 306 304 294 294 299
135 131 146 144 144 145 151 149 145 143 144 150 145 142 144 142 136 113 353 334 333 325 321 319 323 323 325 329 328 327 327 329 330 328 326 325 324 316 314 304 289 292 296 307
168 163 161 154 153 154 151 150 150 150 149 145 142 143 145 146 46 354 342 335 323 314 318 327 333 335 334 332 334 336 335 342 352 352 354 358 1 350 333 307 301 303 303 292
156 152 158 159 159 155 153 152 151 149 143 141 144 150 128 12 347 336 331 323 324 331 334 337 334 335 339 342 344 345 343 337 331 329 332 336 338 342 344 342 343 341 330 324
151 156 157 151 153 157 153 151 149 146 143 147 145 121 44 336 339 332 329 328 334 334 331 332 335 339 343 348 348 346 345 343 342 339 337 338 341 344 342 346 343 339 337 336
155 152 149 156 154 150 149 146 150 150 146 142 142 91 343 340 331 327 320 324 330 331 333 333 336 340 342 342 340 339 340 341 342 341 340 339 338 338 334 334 335 334 334 332
149 151 151 151 150 146 148 151 155 152 150 148 63 2 339 325 324 324 325 328 328 327 330 328 329 332 332 331 331 331 333 333 334 336 336 337 336 333 331 330 329 329 327 323
153 152 148 150 153 153 151 155 151 147 151 6 341 330 321 323 326 327 322 326 327 326 326 326 326 326 326 329 329 330 330 329 330 332 333 334 333 330 330 331 332 331 329 327
145 150 151 154 156 157 159 155 152 140 330 321 313 319 325 325 326 329 330 332 329 329 329 330 328 328 328 329 331 333 333 333 330 331 334 332 330 331 330 331 331 330 328 326
157 155 158 158 157 158 166 172 188 265 290 297 308 313 313 319 323 326 331 329 328 328 324 325 327 330 329 329 330 332 334 333 332 331 336 333 331 332 333 332 331 330 328 326
161 161 161 164 165 166 191 210 241 262 276 285 298 312 304 305 307 311 318 320 321 325 321 318 321 326 326 327 327 327 330 330 331 330 335 332 330 331 332 332 331 330 329 327
165 172 177 180 186 197 212 234 257 275 284 294 302 311 304 291 298 307 313 316 318 322 318 313 315 321 324 327 324 321 322 325 331 331 330 328 330 331 332 332 332 332 331 330